IRNSS-1I

Last updated on Wed Sep 09 2026 00:03:02 GMT+0000 (Coordinated Universal Time)

1 43286U 18035A 26251.09943985 .00000075 00000+0 00000+0 0 9993 2 43286 28.9452 72.9030 0020292 177.0155 188.2309 1.00269069 30914
UTC large
Height (km)
Speed (km/s)
/
Latitude / Longitude
Inclination (degrees)
Orbital Period (minutes)
Azimuth
Elevation
Range (km)
Doppler Factor

Next 0 passes for location: London (51.5072 / 0.1276)

No passes found over London.
IRNSS-1I